Weather in Beloostrov

Russia / Saint-Petersburg and Leningrad Oblast     60°09′00″N   30°00′42″E
temp.,
°C
wind,
m/s
gust,
m/s
humid.,
%
clouds,
%
prec.,
mm/h
press.,
hPa
HPBL,
m
13 june, sun
sun1300:00+13se389541 0.0 1002163
03:00+12se3896100 0.0 1001147
06:00+14se279296 0.0 1001197
09:00+17ssw24785 0.1 1001356
12:00+18sw347299 1.0 1002431
15:00+16w4786100 1.8 1004334
18:00+16nw4581100 0.0 1006632
21:00+13nnw41085100 0.1 1008616
14 june, mon
mon1400:00+11nw3894100 0.0 1011273
03:00+9nw24960 0.0 101282
06:00+12nw2683100 0.0 1014180
09:00+17nw354648 0.0 1015780
12:00+18wsw554166 0.0 10161154
15:00+17sw5542100 0.0 1017726
18:00+16wsw454790 0.0 1016408
21:00+12sw236382 0.0 101567
15 june, tue
tue1500:00+10s246663 0.0 101466
03:00+9sse31075100 0.0 1012200
06:00+13s41366100 0.0 1010421
09:00+17sw51156100 0.0 1008865
12:00+12wsw41098100 1.4 1009548
15:00+14wsw51093100 4.3 1009762
18:00+16wsw51061100 0.1 1008912
21:00+12wsw378738 0.1 1009306
16 june, wed
wed1600:00+11wsw299068 0.0 1011243
03:00+9nw311800 0.0 1013230
06:00+11nw38730 0.0 1015270
09:00+16wnw47490 0.0 10171029
12:00+18w58395 0.0 10181931
15:00+19wsw574292 0.0 10191543
18:00+18wsw474879 0.0 1019696
21:00+13sw26725 0.0 1020157
17 june, thu
thu1700:00+11wsw398562 0.0 1021194
03:00+10wsw28905 0.0 1022147
06:00+13wsw287672 0.0 1023231
09:00+17sw475699 0.0 1023423
12:00+19wsw5941100 0.0 1024745
15:00+22wsw584195 0.0 10231196
18:00+22wsw48450 0.0 1022882
21:00+17wsw24684 0.0 102374